[[{"header":{"parameterUnit":"m.s-1","parameterCategory":1,"la1":30.2991,"la2":30.254,"lo1":-89.0895,"lo2":-89.0444,"dy":0.0017,"dx":0.0017,"nx":28,"ny":28,"refTime":"2026-01-01T03:00:00:Z","depth":0,"parameterNumber":2,"parameterNumberName":"U-component_of_WINDS"},"data":[0,0,0,0,0,0,0,0,0,0,0,0,0,0,0,0,0,0,0,0,0,0,0,0,0,0,0,0,0,0,0,0,0,0,0,0,0,0,0,0,0,0,0,0,0,0,0,0,0,0,0,0,0,0,0,0,0,0,3.5095,3.5096,0,3.5209,3.521,3.5212,3.5194,3.5192,3.519,3.5188,3.5309,3.5313,3.5318,0,0,0,0,0,0,0,0,0,0,0,0,0,3.4865,3.487,3.5095,3.5096,3.5098,3.5209,3.5211,3.5212,3.5194,3.5192,3.519,3.5187,3.5307,3.5313,3.5319,0,0,0,0,0,0,0,0,0,0,0,0,0,3.4971,3.4871,3.5095,3.5102,3.5104,3.5209,3.5211,3.5213,3.5195,3.5192,3.5189,3.5186,3.5305,3.5312,3.532,3.5425,0,0,3.5343,3.5346,0,0,0,0,0,0,0,0,3.4965,3.4979,3.51,3.5102,3.5104,3.5184,3.5174,3.5284,3.5196,3.5161,3.5188,3.5185,3.527,3.528,3.5308,3.5431,3.5436,3.5343,3.5348,3.5351,3.5353,0,0,0,0,0,0,0,3.4958,3.4974,3.514,3.5101,3.5104,3.5101,3.5113,3.5195,3.523,3.5163,3.5162,3.5176,3.527,3.5301,3.5311,3.5437,3.5343,3.535,3.5355,3.5357,3.5655,3.5658,0,0,0,0,0,0,3.4948,3.4968,3.5136,3.5144,3.5026,3.5108,3.5121,3.5162,3.5229,3.5237,3.5178,3.5175,3.5289,3.5302,3.5315,3.5444,3.5351,3.5358,3.5363,3.5651,3.5655,3.5659,0,0,0,0,0,0,3.4943,3.4963,3.5132,3.5056,3.5077,3.5115,3.5161,3.5165,3.5196,3.5241,3.5247,3.5202,3.5288,3.5304,3.5398,3.5448,3.5362,3.5368,3.5647,3.5653,3.5657,3.5702,0,0,0,0,0,0,3.4936,3.4961,3.5,3.5057,3.5081,3.5212,3.5164,3.517,3.5208,3.5205,3.5265,3.5272,3.5287,3.5387,3.5405,3.5457,3.5374,3.5643,3.565,3.5656,3.5696,3.5708,3.5718,0,0,0,0,0,3.4928,3.5009,3.5002,3.5023,3.5131,3.5215,3.5229,3.5243,3.5212,3.5253,3.5282,3.527,3.5439,3.5397,3.5417,3.5472,3.564,3.5648,3.5655,3.5691,3.5706,3.5718,0,0,0,0,0,0,3.4958,3.5016,3.501,3.5111,3.5158,3.5211,3.5263,3.5257,3.5314,3.5309,3.5325,3.5338,3.5434,3.5462,3.5413,3.5578,3.5536,3.5548,3.5556,3.557,3.5581,3.5572,3.5381,0,0,0,0,0,3.4976,3.5038,3.5086,3.5171,3.5195,3.5225,3.5262,3.5269,3.5318,3.5339,3.5374,3.5424,3.5489,3.5531,3.5593,3.57,3.5714,3.5748,3.5759,3.5768,3.5778,3.5839,3.5855,3.5684,3.5684,3.5684,0,0,3.5014,3.5054,3.5092,3.5178,3.5215,3.528,3.5242,3.5312,3.5361,3.535,3.544,3.5469,3.5526,3.5627,3.5674,3.5654,3.5829,3.5777,3.5784,3.579,3.5849,3.5865,3.5879,3.5689,3.5688,3.5687,0,0,3.5118,3.5153,3.5228,3.5267,3.5324,3.5344,3.5362,3.5417,3.5435,3.5526,3.5519,3.5579,3.5689,3.573,3.5766,3.5887,3.5879,3.5907,3.5964,3.6023,3.6037,3.6049,3.6093,3.6109,3.5917,3.5917,3.5917,0,3.5159,3.5256,3.5268,3.534,3.5379,3.537,3.5448,3.5485,3.5559,3.5587,3.5563,3.5702,3.574,3.5852,3.5882,3.591,3.5933,3.59,3.6033,3.6046,3.6057,3.61,3.6117,3.592,3.592,3.592,3.5919,0,3.5304,3.5372,3.5426,3.5498,3.5542,3.5616,3.5642,3.5686,3.5689,3.5712,3.5806,3.5851,3.5923,3.595,3.5954,3.6063,3.6049,3.6029,3.5987,3.6076,3.6117,3.6133,3.5925,3.5924,3.5923,3.5922,0,0,3.5429,3.5507,3.5527,3.556,3.5623,3.5676,3.5751,3.582,3.5859,3.5911,3.5975,3.607,3.6052,3.6092,3.6101,3.6153,3.6248,3.6127,3.6129,3.6149,3.6374,3.6389,3.6407,3.6243,3.6246,3.6249,3.6369,0,3.5539,3.567,3.5684,3.5802,3.5865,3.5859,3.5925,3.5972,3.5996,3.6054,3.6081,3.6148,3.6119,3.6144,3.6195,3.6226,3.6294,3.6217,3.6305,3.6308,3.6291,3.6428,3.6444,3.6555,3.6385,3.6388,3.639,0,3.5685,3.5741,3.5865,3.5921,3.5948,3.6006,3.6072,3.6128,3.6181,3.6195,3.6241,3.6244,3.6323,3.6277,3.6387,3.6335,3.6372,3.6392,3.6397,3.6406,3.6354,3.6442,3.6591,3.6608,3.6415,3.6413,3.6411,0,3.5765,3.5872,3.596,3.5989,3.6055,3.6097,3.6127,3.6177,3.6219,3.6277,3.6304,3.6371,3.6407,3.646,3.6481,3.6445,3.659,3.6546,3.6606,3.6605,3.6637,3.6634,3.6794,3.6659,3.6659,3.6659,3.6658,0,3.5887,3.5964,3.5997,3.6051,3.6137,3.6154,3.6239,3.6267,3.6313,3.6374,3.6373,3.6431,3.6455,3.6517,3.6534,3.6623,3.664,3.6654,3.6658,3.6655,3.6653,3.668,3.6673,3.6663,3.6662,3.6661,3.666,0,3.5991,3.6016,3.6113,3.6168,3.6184,3.6245,3.6294,3.6347,3.6371,3.6448,3.6467,3.6505,3.6578,3.6604,3.6693,3.6705,3.6809,3.6806,3.6791,3.6792,3.685,3.6845,3.7033,3.7059,3.6906,3.6907,3.6909,0,3.6068,3.6126,3.6189,3.6229,3.626,3.6326,3.6368,3.6387,3.6431,3.6498,3.6544,3.6616,3.6675,3.6793,3.6829,3.6897,3.6896,3.6958,3.6907,3.6902,3.6899,3.6895,3.6902,3.6967,3.6969,3.697,3.6971,0,3.6202,3.6212,3.6272,3.6338,3.6388,3.6441,3.6492,3.6525,3.6552,3.6603,3.6677,3.6723,3.6814,3.6886,3.6957,3.6989,3.6986,3.6987,3.7005,3.7002,3.6991,3.6999,3.6817,3.6983,3.6982,3.6981,3.698,3.698,3.6295,3.6347,3.64,3.6468,3.6508,3.6556,3.661,3.664,3.6702,3.6777,3.6785,3.6866,3.692,3.7014,3.705,3.7114,3.7097,3.7122,3.7129,3.7135,3.714,3.6981,3.7127,3.7127,3.7126,3.7126,3.7126,0,3.643,3.6463,3.6525,3.6597,3.6651,3.6642,3.6699,3.6745,3.6815,3.6866,3.6924,3.701,3.7081,3.7123,3.7195,3.7238,3.7239,3.7256,3.7254,3.7262,3.715,3.7128,3.7255,3.7255,3.7255,3.7255,3.7255,3.7255,3.6506,3.6595,3.6611,3.6721,3.6754,3.6832,3.6866,3.6911,3.6951,3.7047,3.7106,3.7133,3.7181,3.7256,3.7321,3.7332,3.7358,3.7378,3.7387,3.7283,3.7269,3.7257,3.7236,3.7383,3.7384,3.7494,3.7495,3.7495]},{"header":{"parameterUnit":"m.s-1","parameterCategory":1,"la1":30.2991,"la2":30.254,"lo1":-89.0895,"lo2":-89.0444,"dy":0.0017,"dx":0.0017,"nx":28,"ny":28,"refTime":"2026-01-01T03:00:00:Z","depth":0,"parameterNumber":3,"parameterNumberName":"V-component_of_WINDS"},"data":[0,0,0,0,0,0,0,0,0,0,0,0,0,0,0,0,0,0,0,0,0,0,0,0,0,0,0,0,0,0,0,0,0,0,0,0,0,0,0,0,0,0,0,0,0,0,0,0,0,0,0,0,0,0,0,0,0,0,0.9976,0.9976,0,0.9978,0.9978,0.9978,0.9963,0.9962,0.9962,0.9962,0.9963,0.9963,0.9963,0,0,0,0,0,0,0,0,0,0,0,0,0,0.9959,0.9959,0.9976,0.9976,0.9976,0.9978,0.9978,0.9978,0.9963,0.9962,0.9962,0.9961,0.9962,0.9963,0.9963,0,0,0,0,0,0,0,0,0,0,0,0,0,0.9964,0.9959,0.9976,0.9969,0.9968,0.9978,0.9978,0.9978,0.9963,0.9962,0.9962,0.9961,0.9962,0.9963,0.9964,0.998,0,0,0.9965,0.9966,0,0,0,0,0,0,0,0,0.9964,0.9965,0.997,0.997,0.9969,0.9969,0.9972,0.9979,0.9963,0.9965,0.9962,0.9961,0.9965,0.9966,0.9967,0.998,0.998,0.9965,0.9966,0.9966,0.9966,0,0,0,0,0,0,0,0.9963,0.9964,0.9977,0.997,0.9969,0.9965,0.9965,0.9973,0.9969,0.9965,0.9964,0.9964,0.9965,0.9967,0.9967,0.998,0.9965,0.9966,0.9966,0.9967,1.0004,1.0005,0,0,0,0,0,0,0.9964,0.9964,0.9977,0.9977,0.9965,0.9966,0.9966,0.997,0.9969,0.9968,0.9965,0.9963,0.9966,0.9967,0.9967,0.9985,0.9966,0.9967,0.9967,1.0004,1.0004,1.0005,0,0,0,0,0,0,0.9964,0.9965,0.9977,0.997,0.9971,0.9967,0.9971,0.997,0.9972,0.9968,0.9967,0.9967,0.9966,0.9966,0.9976,0.9985,0.9967,0.9968,1.0003,1.0004,1.0005,1.0022,0,0,0,0,0,0,0.9963,0.9965,0.9972,0.9971,0.9972,0.9987,0.9972,0.9971,0.9973,0.9972,0.9971,0.997,0.9965,0.9976,0.9977,0.9986,0.9968,1.0002,1.0003,1.0004,1.002,1.0023,1.0026,0,0,0,0,0,0.9963,0.9977,0.9972,0.9974,0.998,0.9987,0.9988,0.9982,0.9974,0.998,0.9978,0.997,0.9984,0.9977,0.9978,0.9987,1.0001,1.0003,1.0004,1.0019,1.0023,1.0026,0,0,0,0,0,0,0.998,0.9977,0.9972,0.9986,0.9987,0.9985,0.9992,0.9986,0.9989,0.9987,0.998,0.998,0.9991,0.999,0.9982,1.0002,0.9991,0.9993,1.0002,1.0005,1.0008,1.0008,0.9969,0,0,0,0,0,0.9985,0.9992,0.9988,1.0001,1.0002,0.9997,1.0,0.9995,0.9996,0.9996,0.9994,0.9995,0.9999,1.0002,1.0006,1.002,1.0019,1.0027,1.0029,1.0031,1.0033,1.0039,1.0042,1.001,1.001,1.0009,0,0,0.9997,0.9996,1.0,1.0005,1.0005,1.0011,0.9998,1.0005,1.0009,0.9997,1.0006,1.0005,1.0005,1.0017,1.0022,1.0016,1.0042,1.0033,1.0035,1.0035,1.0041,1.0044,1.0047,1.001,1.001,1.001,0,0,1.002,1.0021,1.0031,1.0031,1.0031,1.0028,1.003,1.0028,1.0027,1.0036,1.0027,1.0031,1.0039,1.0039,1.004,1.0062,1.0055,1.0063,1.0077,1.0082,1.0085,1.0087,1.0094,1.0097,1.0065,1.0065,1.0065,0,1.0034,1.0044,1.0037,1.0044,1.0046,1.0035,1.0045,1.0045,1.0047,1.0048,1.0042,1.005,1.005,1.0061,1.0066,1.0067,1.0069,1.0063,1.0085,1.0087,1.0089,1.0096,1.0098,1.0066,1.0066,1.0066,1.0066,0,1.006,1.0067,1.0075,1.0076,1.0078,1.0087,1.0081,1.0084,1.0079,1.0076,1.0084,1.0083,1.0085,1.0088,1.0083,1.0097,1.0094,1.0087,1.0076,1.0094,1.0099,1.0102,1.0067,1.0067,1.0067,1.0066,0,0,1.0096,1.0092,1.0095,1.0095,1.0093,1.0098,1.0105,1.0108,1.011,1.0111,1.0117,1.0123,1.0116,1.0117,1.0112,1.0117,1.0133,1.0109,1.0108,1.0112,1.0147,1.0152,1.0155,1.0128,1.0128,1.0129,1.0147,0,1.0118,1.0131,1.0124,1.0137,1.0142,1.0131,1.0138,1.0137,1.0134,1.0137,1.0134,1.0138,1.0128,1.0129,1.0134,1.013,1.0139,1.0128,1.0132,1.0132,1.0132,1.0159,1.0164,1.0182,1.0149,1.015,1.015,0,1.0146,1.0147,1.0161,1.0157,1.0159,1.0165,1.0166,1.017,1.0168,1.0165,1.0166,1.0159,1.0165,1.0154,1.0162,1.0154,1.0155,1.0154,1.0154,1.0154,1.0142,1.0159,1.0188,1.019,1.0154,1.0153,1.0153,0,1.0169,1.0175,1.0183,1.0183,1.018,1.0184,1.0182,1.018,1.0182,1.0182,1.0183,1.0184,1.0185,1.0186,1.0179,1.0172,1.0187,1.0176,1.0184,1.0184,1.0188,1.0188,1.0217,1.019,1.0189,1.0189,1.0189,0,1.0194,1.0203,1.0193,1.0199,1.0207,1.0199,1.0208,1.0205,1.0203,1.0207,1.0198,1.0202,1.0193,1.0195,1.019,1.0197,1.0197,1.0194,1.0193,1.0195,1.0195,1.0195,1.0194,1.019,1.019,1.019,1.019,0,1.0222,1.0216,1.0224,1.0219,1.0218,1.0225,1.0221,1.0225,1.0221,1.0226,1.0226,1.0219,1.0222,1.0215,1.0217,1.0213,1.0222,1.0219,1.0223,1.0221,1.023,1.0229,1.0259,1.0262,1.0234,1.0234,1.0234,0,1.0238,1.0244,1.024,1.0242,1.0241,1.0244,1.0245,1.0237,1.0238,1.0236,1.0241,1.0242,1.0243,1.0247,1.0242,1.0243,1.0239,1.0249,1.0239,1.024,1.0238,1.0237,1.0237,1.0252,1.0252,1.0252,1.0253,0,1.0267,1.0263,1.0266,1.0266,1.0268,1.0268,1.0267,1.0269,1.026,1.0262,1.0264,1.0265,1.0266,1.0267,1.0267,1.0264,1.0257,1.0256,1.0258,1.026,1.0261,1.026,1.0228,1.0255,1.0255,1.0255,1.0255,1.0255,1.0289,1.0293,1.0291,1.0293,1.0291,1.0291,1.0294,1.029,1.0291,1.0292,1.0287,1.0289,1.0286,1.0285,1.0283,1.0285,1.028,1.0283,1.0283,1.0284,1.0285,1.0261,1.0285,1.0285,1.0285,1.0284,1.0284,0,1.0317,1.0314,1.0316,1.0315,1.0317,1.0309,1.0308,1.0309,1.0312,1.031,1.0311,1.0312,1.0313,1.0308,1.0308,1.031,1.0306,1.031,1.031,1.0309,1.029,1.0288,1.0313,1.0313,1.0313,1.0313,1.0313,1.0313,1.0331,1.0338,1.0334,1.0339,1.0336,1.0339,1.0339,1.0338,1.0336,1.0338,1.0339,1.0335,1.0331,1.0331,1.0331,1.0329,1.0329,1.0334,1.0331,1.0313,1.031,1.0308,1.0306,1.0334,1.0334,1.035,1.035,1.035]}]]